Regional Weather Roundup
Issued by NWS New Orleans/Baton Rouge, LA

Home | Current Version | Previous Version | Text Only | Print | Product List | Glossary On
Versions: 1 2 3 4 5 6 7 8 9 10 11 12 13 14 15 16 17 18 19 20 21 22 23 24 25 26 27 28 29 30 31 32 33 34 35 36 37 38 39 40 41 42 43 44 45 46 47 48 49 50
000
ASUS44 KLIX 200710
RWRLIX
NEW ORLEANS REGIONAL WEATHER ROUNDUP
NATIONAL WEATHER SERVICE NEW ORLEANS LA
200 AM CDT WED AUG 20 2014

NOTE: "FAIR" INDICATES FEW OR NO CLOUDS BELOW 12,000 FEET WITH NO
      SIGNIFICANT WEATHER AND/OR OBSTRUCTIONS TO VISIBILITY.
      SKY/WX - SKY CONDITION AND SIGNIFICANT WEATHER.
      TMP - AIR TEMPERATURE.     DP    - DEWPOINT TEMPERATURE.
      RH  - RELATIVE HUMIDITY.   PRES  - PRESSURE.
      HI  - HEAT INDEX.          WCI   - WIND CHILL INDEX.

*  THESE STATIONS ARE NOT NWS OR FAA STATIONS AND ARE NOT UNDER
   NWS QUALITY CONTROL.

LAZ038-040-048-061>063-065>067-069-200800-
SOUTHEAST LOUISIANA

CITY           SKY/WX    TMP DP  RH WIND       PRES   REMARKS
N.O. AUDUBON   NOT AVBL
N.O. INTL ARPT PTCLDY    79  74  84 SW5       29.97F
N.O. LAKEFRONT CLEAR     82  75  79 SW6       29.98S
N.O. DOWNTOWN*   N/A     82  72  69 CALM      29.98S
SLIDELL        CLEAR     76  73  91 CALM      29.97S
BATON ROUGE    MOCLDY    74  71  91 CALM      29.97F
BOOTHVILLE     CLEAR     84  77  79 S8        29.99F
BELLE CHASSE   CLEAR     78  73  84 SW3       29.97F
BOGALUSA*        N/A     76  72  88 CALM      29.99S
GALLIANO*      NOT AVBL
NEW ROADS*       N/A     73  72  96 CALM      29.97S
GONZALES*        N/A     75  75 100 CALM      29.97F
HAMMOND*       PTCLDY    75  70  83 CALM      29.99S
HOUMA*         CLEAR     75  72  90 CALM      29.98S FOG
PORT FOURCHON* SUNNY     84  75  74 S6        30.00S

$$

MSZ070-080>082-200800-
SOUTHERN MISSISSIPPI

CITY           SKY/WX    TMP DP  RH WIND       PRES   REMARKS
MCCOMB         MOCLDY    76  73  91 CALM      29.98F
GULFPORT       CLEAR     78  75  90 N5        29.97R
BILOXI         CLEAR     83  74  74 SW9       29.96F
PASCAGOULA     MOCLDY    78  75  90 CALM      29.97S

$$

COASTAL OBSERVATIONS
LAKE AND NEARSHORE STATIONS

STATION/POSITION TIME  TEMP    WIND        PRES    WAVE
                       AIR SEA DIR/SP/G            HT/PER
                 (UTC) (F)     (DEG/KT/KT) (MB)    (FT/S)
PASCAGOULA       0700   85     220/ 11/ 13 1014.2
WAVELAND YACHT   0700   81     260/  4/  5 1014.3
GRAND ISLE       0700   85 88  190/  6/  9 1016.0
SOUTHWEST PASS   0700   85 88  180/  9/ 10 1015.7
NEW CANAL        0700   82 84  220/  3/  5 1015.5
SHELL BEACH      0700   81 82  200/  6/  8 1014.8

OFFSHORE STATIONS

STATION/POSITION TIME  TEMP    WIND        PRES    WAVE
                       AIR SEA DIR/SP/G            HT/PER
                 (UTC) (F)     (DEG/KT/KT) (MB)    (FT/S)
64 S DAUPHIN ISL 0639   85 87  210/  8/ 10 1015.6

$$




USA.gov is the U.S. government's official web portal to all federal, state and local government web resources and services.